Hourly Data Report for October 20, 2013

All times are specified in Local Standard Time (LST). Add 1 hour to adjust for Daylight Saving Time where and when it is observed.

MONCTON INTL A
NEW BRUNSWICK

46°06'44.000" N
64°40'43.000" W
70.70 m
8103201
71705
YQM

Download Data

Hourly Data (October 2013)
Hourly Data Report for October 20, 2013
Temp Definition
°C
Dew Point Temp Definition
°C
Rel Hum Definition
%
Wind Dir Definition
10's deg

Wind Spd Definition
km/h
Visibility Definition
km
Stn Press Definition
kPa
Hmdx Definition


Wind Chill Definition


Weather Definition


TIME
00:00 Legend Double Dagger 7.7 5.5 86 21 7 24.1 100.14     LegendNANA
01:00 Legend Double Dagger 8.0 6.0 87 15 7 24.1 100.09     LegendNANA
02:00 Legend Double Dagger 7.7 5.4 85 13 4 24.1 100.05     Mostly Cloudy
03:00 Legend Double Dagger 7.6 5.4 86 15 3 24.1 100.03     LegendNANA
04:00 Legend Double Dagger 8.3 5.8 84 17 8 24.1 100.01     LegendNANA
05:00 Legend Double Dagger 8.7 7.3 91 13 14 24.1 99.95     Cloudy
06:00 Legend Double Dagger 8.7 7.3 91 14 8 24.1 99.90     LegendNANA
07:00 Legend Double Dagger 8.0 7.4 96 15 8 24.1 99.88     LegendNANA
08:00 Legend Double Dagger 9.4 8.3 93 14 9 24.1 99.86     Mostly Cloudy
09:00 Legend Double Dagger 11.8 7.7 76 17 17 24.1 99.82     LegendNANA
10:00 Legend Double Dagger 11.9 8.0 77 16 10 24.1 99.83     LegendNANA
11:00 Legend Double Dagger 12.2 6.7 69 14 13 24.1 99.76     Cloudy
12:00 Legend Double Dagger 11.2 8.3 82 10 10 24.1 99.64     Rain Showers
13:00 Legend Double Dagger 10.9 8.7 86 9 19 24.1 99.49     Rain Showers
14:00 Legend Double Dagger 10.3 9.1 92 12 10 19.3 99.48     Rain Showers
15:00 Legend Double Dagger 10.7 9.9 95 13 10 24.1 99.44     LegendNANA
16:00 Legend Double Dagger 11.2 10.4 95 21 4 19.3 99.44     LegendNANA
17:00 Legend Double Dagger 10.9 10.1 95 24 14 24.1 99.49     Mostly Cloudy
18:00 Legend Double Dagger 9.4 6.5 82 28 18 24.1 99.62     LegendNANA
19:00 Legend Double Dagger 7.2 6.0 92 23 10 24.1 99.68     LegendNANA
20:00 Legend Double Dagger 5.9 5.3 96 20 12 24.1 99.71     Mainly Clear
21:00 Legend Double Dagger 6.3 5.9 97 21 15 24.1 99.79     LegendNANA
22:00 Legend Double Dagger 7.1 6.1 93 24 21 24.1 99.81     LegendNANA
23:00 Legend Double Dagger 6.3 4.1 86 25 18 24.1 99.85     Clear

Notes on Data Quality.

Legend

  • E = Estimated
  • M = Missing
  • NA = Not Available
  • ‡ = Partner data that is not subject to review by the National Climate Archives
Date modified: